Weather History for Owosso, MI

Change the Weather History Date:

Wednesday, October 23, 2013

  Actual Average (KFNT) Record (KFNT)
Temperature  
Mean Temperature 39 °F 47 °F  
Max Temperature 46 °F 57 °F 83 °F (1963)
Min Temperature 32 °F 38 °F 23 °F (1969)
Degree Days  
Heating Degree Days 26 18  
Month to date heating degree days 332  
Since 1 July heating degree days 542  
Cooling Degree Days 0 0  
Month to date cooling degree days 2  
Year to date cooling degree days 528  
Moisture  
Dew Point 31 °F    
Average Humidity 73    
Maximum Humidity 93    
Minimum Humidity 44    
Precipitation  
Precipitation 0.00 in 0.07 in 1.85 in (1951)
Month to date precipitation 1.87  
Year to date precipitation 26.18  
Snow  
Snow 0.00 in 0.10 in 0.80 in (1962)
Month to date snowfall 0.3  
Since 1 July snowfall 0.3  
Since 1 September snowfall 0.3  
Snow Depth -    
Sea Level Pressure  
Sea Level Pressure 29.87 in    
Wind  
Wind Speed 5 mph (WNW)    
Max Wind Speed 15 mph    
Max Gust Speed 18 mph    
Visibility 10 miles    
Events      
T = Trace of Precipitation, MM = Missing Value Source: NWS Daily Summary

Daily Weather History Graph

Daily Weather History Graph

Search for Another Location

Airport:

Trip Planner

Search our weather history database for the weather conditions in past years. The results will help you decide how hot, cold, wet, or windy it might be!

Date:

Astronomy

Oct. 23, 2013 Rise Set
Actual Time 8:00 AM EDT 6:40 PM EDT
Civil Twilight 7:31 AM EDT 7:09 PM EDT
Nautical Twilight 6:57 AM EDT 7:42 PM EDT
Astronomical Twilight 6:25 AM EDT 8:15 PM EDT
Moon 10:07 PM EDT (10/23) 12:20 PM EDT (10/23)
Length of Visible Light 11h 38m
Length of Day
10h 40m
Waning Gibbous, 79% of the Moon is Illuminated
Oct 23
Waning Gibbous
Oct 26
Last Quarter
Nov 3
New
Nov 10
First Quarter
Nov 17
Full

Hourly Weather History & Observations

Time (EDT) Temp. Windchill Dew Point Humidity Pressure Visibility Wind Dir Wind Speed Gust Speed Precip Events Conditions
12:14 AM 40.3 °F 38.2 °F 34.7 °F 80% 29.86 in 10.0 mi West 3.5 mph - N/A   Overcast
12:35 AM 39.7 °F 37.6 °F 33.3 °F 78% 29.86 in 10.0 mi West 3.5 mph - N/A   Scattered Clouds
12:55 AM 38.3 °F 35.9 °F 33.8 °F 84% 29.86 in 10.0 mi SSW 3.5 mph - N/A   Mostly Cloudy
1:14 AM 38.5 °F - 34.3 °F 85% 29.86 in 10.0 mi Calm Calm - N/A   Mostly Cloudy
1:35 AM 37.8 °F 35.3 °F 33.8 °F 86% 29.85 in 10.0 mi SW 3.5 mph - N/A   Scattered Clouds
1:55 AM 37.9 °F - 33.8 °F 85% 29.85 in 10.0 mi Calm Calm - N/A   Scattered Clouds
2:14 AM 37.4 °F 34.9 °F 33.1 °F 84% 29.85 in 10.0 mi West 3.5 mph - N/A   Mostly Cloudy
2:35 AM 37.6 °F - 34.2 °F 87% 29.85 in 10.0 mi Calm Calm - N/A   Overcast
2:55 AM 37.4 °F - 34.2 °F 88% 29.85 in 10.0 mi Calm Calm - N/A   Overcast
3:15 AM 37.4 °F - 34.2 °F 88% 29.84 in 10.0 mi Calm Calm - N/A   Overcast
3:35 AM 37.4 °F 34.9 °F 34.2 °F 88% 29.84 in 10.0 mi WNW 3.5 mph - N/A   Overcast
3:55 AM 36.1 °F 33.5 °F 33.1 °F 89% 29.83 in 10.0 mi WNW 3.5 mph - N/A   Mostly Cloudy
4:15 AM 36.5 °F 32.7 °F 33.8 °F 90% 29.83 in 10.0 mi NW 4.6 mph - N/A   Mostly Cloudy
4:35 AM 36.7 °F 32.9 °F 34.2 °F 91% 29.83 in 10.0 mi NNW 4.6 mph - N/A   Overcast
4:55 AM 37.9 °F 35.5 °F 35.1 °F 89% 29.83 in 10.0 mi NW 3.5 mph - N/A   Overcast
5:15 AM 37.8 °F - 35.1 °F 90% 29.82 in 10.0 mi Calm Calm - N/A   Overcast
5:35 AM 37.8 °F 35.3 °F 35.2 °F 91% 29.83 in 10.0 mi NW 3.5 mph - N/A   Overcast
5:55 AM 38.1 °F 33.7 °F 35.6 °F 91% 29.83 in 10.0 mi NW 5.8 mph - N/A   Overcast
6:15 AM 37.8 °F 35.3 °F 35.6 °F 92% 29.83 in 10.0 mi NNW 3.5 mph - N/A   Overcast
6:34 AM 37.4 °F 34.9 °F 35.1 °F 91% 29.83 in 10.0 mi NW 3.5 mph - N/A   Overcast
6:55 AM 36.9 °F 34.3 °F 34.9 °F 93% 29.84 in 10.0 mi NW 3.5 mph - N/A   Overcast
7:15 AM 37.4 °F - 35.4 °F 93% 29.84 in 10.0 mi Calm Calm - N/A   Overcast
7:34 AM 37.4 °F 33.8 °F 35.2 °F 92% 29.84 in 10.0 mi NW 4.6 mph - N/A   Overcast
7:55 AM 37.4 °F - 35.2 °F 92% 29.84 in 10.0 mi Calm Calm - N/A   Overcast
8:15 AM 37.8 °F 35.3 °F 35.2 °F 91% 29.85 in 10.0 mi NW 3.5 mph - N/A   Overcast
8:35 AM 37.6 °F 32.3 °F 34.9 °F 90% 29.86 in 10.0 mi WNW 6.9 mph - N/A   Overcast
8:55 AM 36.5 °F 33.9 °F 34.7 °F 93% 29.86 in 10.0 mi NW 3.5 mph - N/A   Scattered Clouds
9:15 AM 38.3 °F 34.8 °F 35.6 °F 90% 29.87 in 10.0 mi NW 4.6 mph - N/A   Clear
9:35 AM 38.8 °F 34.6 °F 35.6 °F 88% 29.87 in 10.0 mi NW 5.8 mph - N/A   Scattered Clouds
9:55 AM 40.3 °F 36.3 °F 35.4 °F 83% 29.87 in 10.0 mi NW 5.8 mph - N/A   Scattered Clouds
10:15 AM 41.4 °F 35.7 °F 34.5 °F 77% 29.87 in 10.0 mi NW 9.2 mph - N/A   Scattered Clouds
10:35 AM 40.5 °F 35.8 °F 33.8 °F 77% 29.87 in 10.0 mi West 6.9 mph - N/A   Scattered Clouds
10:55 AM 42.1 °F 36.6 °F 34.2 °F 74% 29.87 in 10.0 mi NW 9.2 mph - N/A   Scattered Clouds
11:14 AM 43.0 °F 39.5 °F 32.5 °F 67% 29.87 in 10.0 mi NW 5.8 mph - N/A   Scattered Clouds
11:35 AM 44.2 °F 41.0 °F 31.6 °F 61% 29.87 in 10.0 mi West 5.8 mph - N/A   Scattered Clouds
11:55 AM 45.1 °F 41.4 °F 30.9 °F 58% 29.88 in 10.0 mi West 6.9 mph - N/A   Scattered Clouds
12:14 PM 45.3 °F 40.1 °F 29.3 °F 54% 29.88 in 10.0 mi WNW 10.4 mph - N/A   Mostly Cloudy
12:35 PM 46.2 °F 40.5 °F 28.8 °F 51% 29.88 in 10.0 mi West 12.7 mph - N/A   Mostly Cloudy
12:55 PM 46.8 °F - 28.0 °F 48% 29.87 in 10.0 mi NW 9.2 mph - N/A   Overcast
1:15 PM 44.6 °F 39.7 °F 25.9 °F 48% 29.87 in 10.0 mi WNW 9.2 mph - N/A   Overcast
1:35 PM 45.3 °F 40.6 °F 27.1 °F 49% 29.87 in 10.0 mi West 9.2 mph - N/A   Mostly Cloudy
1:55 PM 44.6 °F 40.2 °F 27.5 °F 51% 29.86 in 10.0 mi West 8.1 mph - N/A   Mostly Cloudy
2:15 PM 45.1 °F 40.3 °F 27.7 °F 50% 29.85 in 10.0 mi West 9.2 mph - N/A   Mostly Cloudy
2:35 PM 46.6 °F - 26.8 °F 46% 29.85 in 10.0 mi West 12.7 mph - N/A   Overcast
2:55 PM 45.9 °F 39.4 °F 24.8 °F 44% 29.85 in 10.0 mi West 15.0 mph 18.4 mph N/A   Mostly Cloudy
3:15 PM 46.6 °F - 26.2 °F 45% 29.85 in 10.0 mi WNW 10.4 mph 18.4 mph N/A   Scattered Clouds
3:34 PM 46.4 °F 41.5 °F 27.0 °F 47% 29.85 in 10.0 mi NW 10.4 mph - N/A   Scattered Clouds
3:55 PM 45.1 °F 39.1 °F 26.4 °F 48% 29.85 in 10.0 mi WNW 12.7 mph - N/A   Mostly Cloudy
4:15 PM 44.6 °F 39.7 °F 25.7 °F 48% 29.86 in 10.0 mi WNW 9.2 mph 16.1 mph N/A   Mostly Cloudy
4:35 PM 45.7 °F 39.5 °F 28.6 °F 51% 29.87 in 10.0 mi WNW 13.8 mph - N/A   Mostly Cloudy
4:55 PM 43.2 °F 37.4 °F 27.3 °F 54% 29.87 in 10.0 mi West 10.4 mph - N/A   Scattered Clouds
5:14 PM 44.4 °F 42.0 °F 28.6 °F 54% 29.87 in 10.0 mi West 4.6 mph - N/A   Mostly Cloudy
5:35 PM 44.1 °F 41.5 °F 27.7 °F 53% 29.87 in 10.0 mi West 4.6 mph - N/A   Mostly Cloudy
5:54 PM 43.7 °F 40.3 °F 27.9 °F 54% 29.87 in 10.0 mi NW 5.8 mph - N/A   Mostly Cloudy
6:15 PM 43.5 °F 39.4 °F 27.3 °F 53% 29.87 in 10.0 mi West 6.9 mph - N/A   Mostly Cloudy
6:35 PM 42.8 °F 37.5 °F 25.7 °F 51% 29.88 in 10.0 mi West 9.2 mph - N/A   Overcast
6:54 PM 42.1 °F 37.7 °F 24.6 °F 50% 29.89 in 10.0 mi WNW 6.9 mph - N/A   Scattered Clouds
7:15 PM 41.2 °F 38.2 °F 25.9 °F 55% 29.89 in 10.0 mi West 4.6 mph - N/A   Mostly Cloudy
7:35 PM 38.5 °F 35.0 °F 27.0 °F 63% 29.89 in 10.0 mi West 4.6 mph - N/A   Scattered Clouds
7:55 PM 38.1 °F - 27.3 °F 65% 29.90 in 10.0 mi Calm Calm - N/A   Scattered Clouds
8:15 PM 37.4 °F 34.9 °F 27.7 °F 68% 29.90 in 10.0 mi West 3.5 mph - N/A   Scattered Clouds
8:35 PM 35.8 °F 33.0 °F 27.9 °F 73% 29.91 in 10.0 mi WSW 3.5 mph - N/A   Clear
8:55 PM 35.1 °F 31.0 °F 26.8 °F 72% 29.91 in 10.0 mi WSW 4.6 mph - N/A   Clear
9:15 PM 35.6 °F 31.7 °F 27.0 °F 71% 29.91 in 10.0 mi WSW 4.6 mph - N/A   Clear
9:35 PM 34.3 °F 28.4 °F 27.0 °F 74% 29.91 in 10.0 mi West 6.9 mph - N/A   Clear
9:55 PM 34.7 °F 28.8 °F 27.5 °F 75% 29.91 in 10.0 mi WSW 6.9 mph - N/A   Clear
10:15 PM 34.7 °F 28.8 °F 29.1 °F 80% 29.91 in 10.0 mi WSW 6.9 mph - N/A   Clear
10:35 PM 34.5 °F 29.4 °F 30.0 °F 84% 29.92 in 10.0 mi WSW 5.8 mph - N/A   Clear
10:55 PM 34.0 °F 28.8 °F 30.6 °F 87% 29.92 in 10.0 mi SW 5.8 mph - N/A   Clear
11:15 PM 33.4 °F 29.1 °F 30.2 °F 88% 29.92 in 10.0 mi WSW 4.6 mph - N/A   Clear
11:35 PM 32.9 °F 29.8 °F 30.6 °F 91% 29.92 in 10.0 mi WSW 3.5 mph - N/A   Clear
11:55 PM 32.0 °F 28.7 °F 30.2 °F 93% 29.92 in 10.0 mi WSW 3.5 mph - N/A   Clear